Location: Hall+in+Tirol
(47.2830°N, 11.5170°E)
Time: 05:29:03
(UTC+02:00)

Daily predictions for brighter satellites

Satellite Brightness Start Highest point End
(mag) Time Altitude Azimuth Time Altitude Azimuth Time Altitude Azimuth
Lacrosse 5 4.3 00:22:39 10° NW 00:24:23 19° NW 00:24:23 19° NW
Cosmos 2297 Rocket 3.9 00:22:30 10° NNW 00:25:19 29° N 00:25:19 29° N
Cosmos 2227 Rocket 4.1 00:48:37 10° NNW 00:50:51 25° NNW 00:50:51 25° NNW
Cosmos 1943 Rocket 4.4 01:05:57 18° NW 01:06:21 18° NW 01:10:11 10° N
Cosmos 2263 Rocket 4.4 01:15:29 10° N 01:19:12 18° NE 01:19:15 18° NE
CZ-4C R/B 4.5 01:18:32 17° NW 01:21:19 23° NNW 01:26:23 10° NNE
ATLAS 3B R/B 3.8 01:32:34 41° NW 01:32:34 41° NW 01:39:11 10° NNE
USA 215 4.4 01:30:01 10° ENE 01:35:56 38° N 01:41:51 10° WNW
COSMOS 2455 4.3 02:17:37 32° N 02:17:37 32° N 02:21:33 10° NNE
SL-16 R/B 4.0 02:21:16 30° ENE 02:22:00 31° ENE 02:27:18 10° N
Cosmos 2322 Rocket 4.0 02:27:44 24° ENE 02:27:44 24° ENE 02:30:22 10° NE
SL-16 R/B 3.9 02:34:56 27° ENE 02:34:56 27° ENE 02:37:56 10° NE
Cosmos 1697 Rocket 4.2 02:37:08 33° N 02:37:08 33° N 02:40:21 10° NNE
Cosmos 2360 Rocket 4.0 02:55:17 22° E 02:55:17 22° E 02:58:49 10° NE
Cosmos 1980 Rocket 3.4 02:56:56 38° N 02:56:56 38° N 03:00:33 10° NNE
NOSS 3-2 (C) 4.5 02:58:46 40° NNW 02:58:46 40° NNW 03:05:02 10° NE
ATLAS 5 CENTAUR R/B 4.3 02:54:04 10° NNW 02:58:40 25° NNE 03:03:37 10° E
CENTAUR R/B 2.9 03:01:33 62° NNE 03:01:33 62° NNE 03:07:26 10° NE
Cosmos 2263 Rocket 3.8 02:58:29 10° NNW 03:00:55 27° NNW 03:00:55 27° NNW
USA 215 4.1 03:11:59 10° E 03:18:09 46° NNE 03:24:20 10° NW
Cosmos 2322 4.4 03:38:49 45° ESE 03:38:50 45° ESE 03:44:15 10° NE
Cosmos 2315 Rocket 3.9 03:45:36 84° NNW 03:45:36 84° NNW 03:51:40 10° N
Cosmos 1709 Rocket 4.3 03:43:54 10° NNW 03:48:58 54° NW 03:48:58 54° NW
Resurs 1-4 Rocket 2.2 03:45:52 10° NNE 03:50:42 71° NE 03:50:42 71° NE
CZ-2D R/B 2.1 03:57:33 10° NNE 04:02:59 86° NNW 04:02:59 86° NNW
Cosmos 2074 Rocket 4.0 03:58:54 10° N 04:05:11 79° E 04:07:17 44° SSE
SL-16 R/B 2.8 04:06:21 50° WNW 04:06:21 50° WNW 04:11:27 10° NNW
Meteor 1-18 Rocket 4.4 04:07:27 54° SSE 04:08:31 65° E 04:14:05 10° NNE
Cosmos 2322 Rocket 2.8 04:09:32 43° NW 04:09:32 43° NW 04:14:41 10° NNE
ADEOS II 4.3 04:05:46 10° NE 04:09:40 21° E 04:13:31 10° SE
MOZ.5/SAFIR/RUBIN 5/SL-8 3.9 04:10:35 72° NNE 04:10:35 72° NNE 04:14:56 10° N
Cosmos 1544 Rocket 4.2 04:10:08 10° N 04:13:33 52° N 04:13:33 52° N
SL-16 R/B 2.9 04:16:49 40° NW 04:16:50 40° NW 04:22:11 10° NNE
Cosmos 2219 Rocket 3.8 04:15:21 17° SSE 04:18:28 28° ESE 04:23:11 10° NE
UNKNOWN OBJECT B 3.7 04:15:42 10° NNE 04:18:18 43° NNE 04:18:18 43° NNE
Cosmos 1844 Rocket 2.8 04:14:34 10° NNW 04:20:11 72° ENE 04:25:45 10° SE
Cosmos 1867 4.2 04:19:39 10° NNW 04:25:03 56° NE 04:30:24 10° SE
ADEOS 3.8 04:20:21 10° N 04:25:20 53° WNW 04:25:20 53° WNW
Meteor 1-12 Rocket 4.1 04:19:46 10° NNW 04:25:28 85° W 04:27:29 42° S
Cosmos 2237 4.3 04:25:29 50° S 04:26:57 71° ESE 04:32:41 10° NNE
SL-08 ROCKET BODY 4.2 04:22:11 10° NNW 04:27:58 62° W 04:28:29 59° WSW
ARIANE 5 R/B 2.7 04:23:07 10° N 04:28:03 53° WNW 04:28:03 53° WNW
COSMOS 2428 3.0 04:29:33 39° S 04:31:30 61° ESE 04:37:07 10° NNE
ADEOS Rocket 2.7 04:28:22 10° N 04:33:50 63° WNW 04:34:40 56° WSW
Cosmos 1898 Rocket 4.2 04:31:46 10° NNW 04:36:53 53° ENE 04:41:56 10° SE
Cosmos 2360 Rocket 2.2 04:37:03 53° W 04:38:00 61° WNW 04:43:38 10° NNE
Cosmos 1980 Rocket 4.2 04:38:41 14° NW 04:40:10 15° NW 04:43:21 10° N
Cosmos 2278 Rocket 3.1 04:37:18 10° NNW 04:42:50 50° ENE 04:48:19 10° SE
Cosmos 1570 Rocket 4.0 04:41:50 45° S 04:43:27 82° ESE 04:48:42 10° NNE
ATLAS 5 CENTAUR R/B 2.5 04:38:24 10° NW 04:44:17 74° NE 04:50:44 10° SE
Cosmos 2184 Rocket 4.0 04:38:50 10° NNW 04:44:55 57° W 04:47:07 38° SSW
Cosmos 1455 Rocket 3.5 04:43:36 10° NNW 04:47:07 45° WNW 04:47:07 45° WNW
Okean O Rocket 2.5 04:45:27 10° NNE 04:49:46 47° E 04:52:57 17° SSE
CZ-4B R/B 3.8 04:46:20 10° NNE 04:49:47 40° E 04:51:43 22° SSE
Cosmos 2237 Rocket 3.8 04:45:33 10° SSE 04:50:27 31° ESE 04:55:24 10° NE
CENTAUR R/B 4.0 04:48:43 20° WNW 04:52:06 30° NNW 04:58:28 10° NE
CZ-2D R/B 3.7 04:51:26 10° N 04:55:46 53° WNW 04:56:12 50° W
Okean 1 3.6 04:56:35 49° WNW 04:56:35 49° WNW 05:00:27 10° N
MOS 1-B 4.3 04:51:52 10° NNE 04:57:43 84° WNW 05:01:07 27° SSW
IRS-1D 4.5 04:54:26 10° N 04:58:38 28° WNW 04:58:53 28° WNW
USA 215 3.2 04:54:17 10° SE 05:00:52 88° SW 05:07:27 10° NW
Cosmos 1937 Rocket 4.0 04:56:31 10° NNW 05:01:50 63° ENE 05:07:04 10° SE
CZ-4C R/B 4.1 04:56:29 10° NNW 05:02:46 39° NE 05:09:47 10° ESE
Meteor 2-4 Rocket 4.3 05:02:06 10° S 05:07:29 55° E 05:12:46 10° NNE
Meteor 1-19 Rocket 4.4 05:02:43 13° S 05:07:53 77° E 05:13:40 10° NNE
Cosmos 1340 3.3 05:08:42 37° WNW 05:08:42 37° WNW 05:12:04 10° N
SL-8 R/B 3.7 05:08:15 37° W 05:10:00 62° SSW 05:14:43 10° SE
Cosmos 1975 4.2 05:07:19 10° NNW 05:09:31 24° WNW 05:09:31 24° WNW
USA 229 DEB 3.9 05:07:20 20° SSW 05:12:14 68° SE 05:19:09 10° NE
USA 229 3.9 05:07:25 20° SSW 05:12:20 68° SE 05:19:15 10° NE
PSLV R/B 3.6 05:08:46 10° N 05:12:33 81° WNW 05:14:08 34° SSW
Cosmos 1812 4.5 05:16:56 18° NW 05:16:56 18° NW 05:19:05 10° NNW
Cosmos 1536 Rocket 4.0 05:17:13 34° WSW 05:18:28 43° WNW 05:22:46 10° N
Cosmos 2333 Rocket 2.5 05:13:38 14° SSW 05:18:32 66° ESE 05:24:15 10° NNE
Cosmos 2154 Rocket 4.0 05:13:17 10° NNW 05:19:21 57° W 05:25:23 10° S
IRS-1C Rocket 4.2 05:14:49 10° NNE 05:20:07 79° ESE 05:25:22 10° SSW
PAYLOAD B 4.3 05:15:07 10° NNE 05:20:46 82° ESE 05:26:24 10° SSW
Cosmos 1666 2.6 05:16:54 10° NNW 05:20:47 75° W 05:24:39 10° S
BREEZE M DEB (TANK) 3.7 05:06:12 10° WNW 05:21:08 76° SSW 05:25:21 10° ESE
PSLV R/B 3.7 05:18:25 10° NNE 05:22:47 74° ESE 05:27:09 10° S
CZ-2C R/B 3.6 05:19:43 10° SSE 05:24:16 81° WSW 05:28:47 10° NNW
Cosmos 1814 Rocket 4.4 05:24:01 10° S 05:29:07 61° ESE 05:34:13 10° NNE
CZ-3A R/B 2.2 05:29:53 12° SE 05:29:57 12° SE 05:30:37 10° E
Resurs 1-4 Rocket 3.6 05:26:55 10° NNW 05:30:25 18° WNW 05:31:47 17° WNW
Cosmos 405 Rocket 3.4 05:29:26 10° S 05:33:24 59° E 05:37:19 10° NNE
Cosmos 2058 Rocket 4.3 05:29:07 10° N 05:33:27 44° ENE 05:37:41 10° SSE
SL-8 Rocket 4.0 05:27:25 10° N 05:33:40 88° E 05:39:51 10° S
Cosmos 2298 Rocket 4.0 05:29:29 10° NNW 05:34:46 61° WSW 05:40:00 10° S
Cosmos 1743 3.5 05:31:42 10° NNW 05:35:09 31° W 05:36:22 25° SW
DELTA 2 R/B (1) 4.3 05:32:25 22° SW 05:35:16 38° S 05:40:21 10° ESE
Nadezhda 1 Rocket 4.5 05:33:16 20° SW 05:36:49 37° WNW 05:42:27 10° N
Cosmos 1844 4.1 05:32:04 10° NW 05:37:24 40° WSW 05:42:40 10° S
CZ-2D R/B 3.9 05:39:07 10° NNW 05:42:22 16° NW 05:44:19 14° W
MOS 1 Rocket 4.0 05:39:50 10° N 05:44:00 33° WNW 05:46:30 19° WSW
Meteor PRIRODA 4.0 05:40:51 10° NNE 05:44:37 70° ESE 05:48:22 10° S
Cosmos 1606 Rocket 3.6 05:40:48 10° N 05:45:19 89° W 05:49:48 10° S
CZ-4B R/B 3.2 05:39:50 10° N 05:45:28 71° WNW 05:50:59 10° SSW
Cosmos 2181 Rocket 4.0 05:39:49 10° SSW 05:46:02 70° W 05:52:24 10° N
Cosmos 1238 Rocket 3.2 05:48:00 23° W 05:48:42 25° WNW 05:51:22 10° NNW
SL-16 R/B 3.6 05:43:46 10° S 05:48:57 39° ESE 05:54:11 10° NE
ADEOS II 2.1 05:44:36 10° N 05:49:48 60° WNW 05:54:58 10° SSW
CZ-4B DEB 4.3 05:44:34 10° N 05:50:06 65° WNW 05:55:35 10° SSW
Okean 1-7 Rocket 3.7 05:46:13 10° SSW 05:50:39 57° WNW 05:55:05 10° N
NOSS 0 Rocket 3.9 05:47:51 10° SSW 05:54:03 82° WNW 06:00:14 10° NNE
Cosmos 2322 Rocket 4.3 05:53:06 10° NW 05:54:57 11° NNW 05:56:48 10° NNW
ERBS 2.4 05:53:25 10° NW 05:56:56 84° NE 06:00:25 10° SE
Meteor 1-31 Rocket 3.0 05:53:34 10° NNE 05:57:24 72° ESE 06:01:12 10° S
Cosmos 1980 3.7 05:52:23 10° SSW 05:58:02 79° WNW 06:03:44 10° NNE
Cosmos 2228 3.5 05:54:53 10° N 05:59:13 66° ENE 06:03:33 10° SSE
Cosmos 2219 Rocket 2.5 05:57:06 12° SW 06:02:08 50° WNW 06:07:36 10° NNE
SL-16 R/B 4.4 06:01:06 10° NW 06:02:38 11° NNW 06:04:11 10° NNW
ERS-2 2.1 05:59:07 10° NNE 06:02:50 89° ESE 06:06:32 10° SSW
Iridium 2 3.8 05:59:07 10° NNW 06:02:53 55° W 06:06:38 10° SSW
Cosmos 990 Rocket 4.1 05:57:57 10° NNW 06:02:58 50° WSW 06:07:55 10° S
EO 1 Del DPAF 4.3 05:59:49 10° SSW 06:03:03 25° W 06:06:17 10° NW
Aureole 2 Rocket 2.4 05:59:43 10° SW 06:03:06 55° WNW 06:06:16 10° NNE
Cosmos 1844 Rocket 3.9 05:59:40 10° WNW 06:03:27 19° W 06:07:14 10° SW
Cosmos 2218 Rocket 4.0 05:59:55 10° NNW 06:06:14 65° W 06:12:28 10° S
Cosmos 1867 4.4 06:03:46 10° NW 06:08:21 28° WSW 06:12:56 10° S
Cosmos 1025 Rocket 3.5 06:08:23 10° SSW 06:12:34 42° WNW 06:16:46 10° N
IRAS Rocket 4.5 06:07:22 10° N 06:12:43 51° WNW 06:18:05 10° SW
Cosmos 1437 Rocket 3.4 06:10:30 10° N 06:14:36 64° ENE 06:18:37 10° SSE
Cosmos 1346 3.4 06:11:57 10° S 06:14:45 64° E 06:17:35 10° NNE
Okean 2 3.6 06:11:26 10° SSW 06:15:30 51° WNW 06:19:36 10° N
Cosmos 468 Rocket 4.4 06:10:45 10° SW 06:15:42 44° WNW 06:20:45 10° NNE
COSMOS 2428 3.8 06:11:35 11° WSW 06:16:12 27° NW 06:21:03 10° N
Cosmos 371 Rocket 3.4 06:11:44 10° SSW 06:16:36 87° ESE 06:21:32 10° NNE
Cosmos 1726 Rocket 3.8 06:14:50 10° NNW 06:19:08 47° W 06:23:24 10° SSW
Cosmos 332 Rocket 3.8 06:16:51 10° SSW 06:21:44 67° WNW 06:26:37 10° NNE
COSMO-SKYMED 1 2.7 06:18:37 10° SSE 06:22:57 86° E 06:27:20 10° NNW
Cosmos 2360 Rocket 4.1 06:20:05 10° WNW 06:23:15 15° NW 06:26:26 10° N
CZ-4B R/B 4.3 06:22:20 10° NNW 06:24:44 17° WNW 06:27:09 10° WSW
Thor Agena Rocket 3.5 06:20:13 10° S 06:25:12 61° WSW 06:30:13 10° NNW
Okean O Rocket 3.0 06:22:28 10° NNW 06:25:51 21° WNW 06:29:13 10° WSW
Cosmos 2278 Rocket 3.0 06:21:51 10° NW 06:26:39 29° WSW 06:31:25 10° SSW
CZ-4B R/B 4.2 06:22:25 10° N 06:26:53 60° WNW 06:31:17 10° SSW
Cosmos 1125 Rocket 3.6 06:22:09 10° NNW 06:27:28 86° WSW 06:32:46 10° SSE
ATLAS 5 CENTAUR R/B 3.3 06:23:46 10° WNW 06:28:40 26° WSW 06:33:53 10° SSW
